Location: 10048 Water Well
(33.8501°N, 106.8364°W)
Time: 17:42:45
(UTC+00:00)

Cosmos 1814 Rocket - Pass Details

Date: 11 December 2025
Orbit: 740 x 783 km, 74.1° (Epoch: 22 January)

Event Time Altitude Azimuth Distance (km) Brightness Sun altitude
Rises 12:47:05 0° 208° (SSW) 3,194 7.1 -15.3°
Reaches altitude 10° 12:49:29 10° 213° (SSW) 2,280 6.3 -14.8°
Maximum altitude 12:54:32 53° 290° (WNW) 938 4.1 -13.8°
Drops below altitude 10° 12:59:40 10° 7° (N) 2,320 6.4 -12.8°
Sets 13:02:08 0° 12° (NNE) 3,257 7.2 -12.3°
